Location: Winthrop
(48.4780°N, 120.1850°W)
Time: 16:02:35
(UTC-07:00)

Explorer 7 - Pass Details

Date: 31 January 2023
Orbit: 478 x 657 km, 50.3° (Epoch: 30 March)

Event Time Altitude Azimuth Distance (km) Brightness Sun altitude
Rises 12:51:02 0° 221° (SW) 2,688 11.3 23.7°
Reaches altitude 10° 12:53:18 10° 213° (SSW) 1,831 10.9 23.7°
Maximum altitude 12:57:10 37° 146° (SE) 903 8.8 23.6°
Drops below altitude 10° 13:01:17 10° 79° (E) 1,949 9.5 23.4°
Sets 13:03:46 0° 71° (ENE) 2,888 10.2 23.3°
